Location: Luna
(33.8188°N, 108.9564°W)
Time: 22:09:24
(UTC+00:00)

N. Korean satellite - Pass Details

Date: 03 December 2022
Orbit: 407 x 442 km, 97.3° (Epoch: 05 February)

Event Time Altitude Azimuth Distance (km) Brightness Sun altitude
Rises 11:55:52 0° 24° (NNE) 2,506 10.4 -26.1°
Reaches altitude 10° 11:58:09 10° 37° (NE) 1,618 9.5 -25.7°
Maximum altitude 12:01:09 27° 97° (E) 916 8.6 -25.0°
Drops below altitude 10° 12:04:06 10° 157° (SSE) 1,583 9.6 -24.4°
Sets 12:06:18 0° 170° (S) 2,439 10.4 -24.0°
